Regional Weather Roundup
Issued by NWS Goodland, KS

Home | Current Version | Previous Version | Text Only | Print | Product List | Glossary Off
Versions: 1 2 3 4 5 6 7 8 9 10 11 12 13 14 15 16 17 18 19 20 21 22 23 24 25 26 27 28 29 30 31 32 33 34 35 36 37 38 39 40 41 42 43 44 45 46 47 48 49 50

199
ASUS43 KGLD 241208
RWRGLD

GOODLAND FORECAST AREA HOURLY WEATHER ROUNDUP
NATIONAL WEATHER SERVICE GOODLAND KS
600 AM MDT WED AUG 24 2016

...OFFICIAL OBSERVATIONS...

CITY           SKY/WX    TMP DP  RH WIND       PRES   REMARKS
GOODLAND KS    MOCLDY    62  47  57 NE5       30.08R
HILL CITY KS   CLOUDY    66  53  63 N12       29.99R
IMPERIAL NEB   MOCLDY    62  44  51 NE6       30.08S
MCCOOK NEB     CLOUDY    60  48  64 N8        30.05R
AKRON CO       CLOUDY    62  39  42 NE7       30.15R
BURLINGTON CO  CLOUDY    63  42  46 NE7       30.11R
LIMON CO       CLOUDY    58  42  55 N3        30.18R
$$

...UNOFFICIAL OBSERVATIONS...

CITY           SKY/WX    TMP DP  RH WIND       PRES   REMARKS
COLBY KS       PTCLDY    64  50  59 NE22      30.03F
LENORA KS        N/A     62  32  32 MISG        N/A
NORTON KS      CLEAR     61  46  59 NW9       30.02R
SHARON SPRINGS   N/A     62  50  64 NE6         N/A
TRENTON NEB      N/A     61  32  33 MISG        N/A
KIT CARSON CO    N/A     63  44  50 MISG        N/A
YUMA CO          N/A     61  44  53 NE6         N/A
$$




USA.gov is the U.S. government's official web portal to all federal, state and local government web resources and services.